Location: Haulchin
(50.3172°N, 3.4360°E)
Time: 03:45:03
(UTC+00:00)

Cosmos 1953 - Pass Details

Date: 23 May 2024
Orbit: 510 x 531 km, 82.5° (Epoch: 21 June)

Event Time Altitude Azimuth Distance (km) Brightness Sun altitude
Rises 02:35:14 0° 330° (NNW) 2,685 6.1 -9.5°
Reaches altitude 10° 02:39:08 10° 290° (WNW) 1,781 4.7 -9.1°
Maximum altitude 02:39:55 11° 279° (W) 1,744 4.6 -9.0°
Drops below altitude 10° 02:40:43 10° 267° (W) 1,775 4.5 -8.9°
Enters shadow 02:41:45 - 253° (WSW) 1,908 4.6 -8.8°
